[[{"header":{"parameterUnit":"m.s-1","parameterCategory":1,"la1":30.2991,"la2":30.254,"lo1":-89.0895,"lo2":-89.0444,"dx":0.0017,"dy":0.0017,"nx":28,"ny":28,"refTime":"2022-11-18T15:00:00:Z","depth":0,"parameterNumber":2,"parameterNumberName":"U-component_of_WINDS"},"data":[0,0,0,0,0,0,0,0,0,0,0,0,0,0,0,0,0,0,0,0,0,0,0,0,0,0,0,0,0,0,0,0,0,0,0,0,0,0,0,0,0,0,0,0,0,0,0,0,0,0,0,0,0,0,0,0,0,0,-1.7559,-1.7561,0,-1.772,-1.7722,-1.7724,-1.7633,-1.7628,-1.7624,-1.762,-1.78,-1.7809,-1.7818,0,0,0,0,0,0,0,0,0,0,0,0,0,-1.7186,-1.7194,-1.7559,-1.7561,-1.7563,-1.772,-1.7722,-1.7724,-1.7634,-1.7628,-1.7623,-1.7617,-1.7797,-1.7808,-1.7819,0,0,0,0,0,0,0,0,0,0,0,0,0,-1.7348,-1.7196,-1.7558,-1.7536,-1.7536,-1.7719,-1.7722,-1.7725,-1.7635,-1.7628,-1.7621,-1.7615,-1.7794,-1.7807,-1.782,-1.804,0,0,-1.7862,-1.7868,0,0,0,0,0,0,0,0,-1.7339,-1.7362,-1.7537,-1.7538,-1.7538,-1.7649,-1.7657,-1.7831,-1.7637,-1.7598,-1.7619,-1.7612,-1.7757,-1.7773,-1.7818,-1.8048,-1.8056,-1.7863,-1.7871,-1.7877,-1.7881,0,0,0,0,0,0,0,-1.7328,-1.7355,-1.7623,-1.754,-1.754,-1.7523,-1.7538,-1.769,-1.7714,-1.7601,-1.7594,-1.7614,-1.7755,-1.7805,-1.7822,-1.8059,-1.7862,-1.7875,-1.7883,-1.7888,-1.8479,-1.8486,0,0,0,0,0,0,-1.7316,-1.7346,-1.7618,-1.7628,-1.7419,-1.7535,-1.7552,-1.7621,-1.7712,-1.7719,-1.7619,-1.7609,-1.7786,-1.7806,-1.7828,-1.8092,-1.7877,-1.7889,-1.7897,-1.8472,-1.8481,-1.8489,0,0,0,0,0,0,-1.7309,-1.7341,-1.7611,-1.7485,-1.7518,-1.7548,-1.7626,-1.7627,-1.7677,-1.7726,-1.7731,-1.7665,-1.7781,-1.7809,-1.7987,-1.8097,-1.7896,-1.7908,-1.8463,-1.8475,-1.8485,-1.8622,0,0,0,0,0,0,-1.7298,-1.7339,-1.742,-1.7487,-1.7525,-1.7764,-1.7633,-1.7635,-1.7699,-1.7687,-1.777,-1.7778,-1.7778,-1.7967,-1.8001,-1.8112,-1.7918,-1.8453,-1.8468,-1.8481,-1.8608,-1.8637,-1.8661,0,0,0,0,0,-1.7285,-1.7455,-1.7424,-1.7458,-1.7625,-1.777,-1.7792,-1.7785,-1.7708,-1.7791,-1.7823,-1.7775,-1.8079,-1.7986,-1.8023,-1.8141,-1.8446,-1.8464,-1.848,-1.8596,-1.8631,-1.8661,0,0,0,0,0,0,-1.7405,-1.7463,-1.743,-1.7625,-1.7693,-1.7754,-1.7859,-1.7822,-1.7917,-1.7902,-1.7893,-1.7913,-1.8099,-1.8137,-1.8033,-1.8359,-1.8251,-1.8277,-1.8327,-1.8361,-1.8387,-1.8375,-1.793,0,0,0,0,0,-1.7452,-1.756,-1.7608,-1.7776,-1.7811,-1.783,-1.7893,-1.788,-1.7952,-1.7982,-1.8026,-1.8102,-1.8215,-1.8289,-1.8396,-1.8612,-1.8631,-1.8711,-1.8738,-1.876,-1.8783,-1.8902,-1.8939,-1.8545,-1.8545,-1.8545,0,0,-1.7555,-1.76,-1.767,-1.7801,-1.7852,-1.7969,-1.7855,-1.7983,-1.8071,-1.8003,-1.8173,-1.8208,-1.8293,-1.8491,-1.8581,-1.8529,-1.8895,-1.8781,-1.8798,-1.881,-1.8924,-1.8961,-1.8994,-1.8557,-1.8554,-1.8553,0,0,-1.7801,-1.7845,-1.799,-1.8042,-1.8119,-1.813,-1.8165,-1.8232,-1.8251,-1.842,-1.8372,-1.8479,-1.8673,-1.8735,-1.8792,-1.9061,-1.9022,-1.9097,-1.9237,-1.9354,-1.9385,-1.9413,-1.9511,-1.9546,-1.9119,-1.9119,-1.9119,0,-1.792,-1.8089,-1.8071,-1.8202,-1.8263,-1.8201,-1.8351,-1.8404,-1.8514,-1.856,-1.8498,-1.874,-1.8792,-1.9005,-1.907,-1.9118,-1.9161,-1.9088,-1.9381,-1.9409,-1.9434,-1.9528,-1.9565,-1.9128,-1.9127,-1.9126,-1.9125,0,-1.8233,-1.8351,-1.846,-1.8561,-1.8634,-1.8775,-1.8782,-1.8859,-1.8841,-1.886,-1.9035,-1.9095,-1.9212,-1.9262,-1.9247,-1.9474,-1.9439,-1.938,-1.9273,-1.9481,-1.9569,-1.9605,-1.914,-1.9137,-1.9134,-1.9132,0,0,-1.8561,-1.8648,-1.8689,-1.8735,-1.8815,-1.8908,-1.9047,-1.9157,-1.9224,-1.9303,-1.9422,-1.9586,-1.9531,-1.9596,-1.9588,-1.969,-1.9902,-1.9618,-1.962,-1.9671,-2.0159,-2.0205,-2.0246,-1.9875,-1.9882,-1.9887,-2.0153,0,-1.8813,-1.9049,-1.9037,-1.9262,-1.9372,-1.9316,-1.9437,-1.9502,-1.9524,-1.9625,-1.965,-1.9767,-1.9685,-1.9724,-1.9822,-1.9855,-2.0001,-1.9836,-1.9991,-1.9997,-1.9973,-2.0292,-2.0341,-2.0588,-2.0187,-2.0193,-2.0197,0,-1.914,-1.9223,-1.9457,-1.952,-1.9566,-1.9675,-1.9775,-1.9871,-1.9945,-1.9954,-2.0025,-2.0,-2.0146,-2.0032,-2.0235,-2.0123,-2.0186,-2.0212,-2.0222,-2.0238,-2.0111,-2.032,-2.0667,-2.0705,-2.0251,-2.0246,-2.0243,0,-1.9358,-1.953,-1.9691,-1.9732,-1.981,-1.9888,-1.9925,-1.9991,-2.0058,-2.0148,-2.0192,-2.0299,-2.0359,-2.0445,-2.0452,-2.0367,-2.0657,-2.0544,-2.0673,-2.0673,-2.0739,-2.0735,-2.1103,-2.0775,-2.0775,-2.0774,-2.0773,0,-1.9642,-1.9789,-1.979,-1.9891,-2.0054,-2.004,-2.0203,-2.0233,-2.0293,-2.0401,-2.036,-2.0464,-2.0465,-2.0573,-2.0579,-2.0748,-2.0775,-2.0789,-2.079,-2.0794,-2.0793,-2.0837,-2.0822,-2.0784,-2.0782,-2.078,-2.0778,0,-1.9915,-1.9921,-2.0094,-2.0152,-2.017,-2.0288,-2.034,-2.0438,-2.0454,-2.0592,-2.0624,-2.0653,-2.0777,-2.0791,-2.0937,-2.0942,-2.1146,-2.1127,-2.1119,-2.1117,-2.1246,-2.1235,-2.1658,-2.1714,-2.1348,-2.1351,-2.1354,0,-2.0097,-2.0207,-2.0275,-2.0342,-2.0382,-2.0491,-2.0558,-2.055,-2.0622,-2.0714,-2.0802,-2.0921,-2.1016,-2.1218,-2.1255,-2.1368,-2.1353,-2.1494,-2.137,-2.1371,-2.1358,-2.1352,-2.1365,-2.1519,-2.1523,-2.1526,-2.1529,0,-2.0421,-2.0418,-2.0513,-2.061,-2.069,-2.0768,-2.0841,-2.09,-2.0901,-2.0985,-2.1109,-2.1182,-2.1329,-2.145,-2.156,-2.1603,-2.1569,-2.1566,-2.1603,-2.161,-2.1602,-2.161,-2.1187,-2.1558,-2.1555,-2.1553,-2.1551,-2.155,-2.0655,-2.0751,-2.0813,-2.0921,-2.0974,-2.1043,-2.1137,-2.1163,-2.1265,-2.138,-2.137,-2.1508,-2.1582,-2.1725,-2.1776,-2.1887,-2.1841,-2.1893,-2.1907,-2.1921,-2.1935,-2.1581,-2.1907,-2.1907,-2.1906,-2.1905,-2.1905,0,-2.0978,-2.1014,-2.1114,-2.1214,-2.1301,-2.1254,-2.1332,-2.1409,-2.1529,-2.1597,-2.169,-2.1834,-2.195,-2.1995,-2.211,-2.2191,-2.2178,-2.2222,-2.2217,-2.2228,-2.1968,-2.1926,-2.223,-2.223,-2.223,-2.223,-2.223,-2.223,-2.1156,-2.1316,-2.1321,-2.1508,-2.1544,-2.1675,-2.1724,-2.1789,-2.1843,-2.2003,-2.2098,-2.2124,-2.2185,-2.2304,-2.241,-2.2421,-2.2467,-2.2518,-2.2522,-2.2279,-2.2246,-2.2215,-2.2176,-2.2527,-2.2528,-2.2773,-2.2776,-2.2777]},{"header":{"parameterUnit":"m.s-1","parameterCategory":1,"la1":30.2991,"la2":30.254,"lo1":-89.0895,"lo2":-89.0444,"dx":0.0017,"dy":0.0017,"nx":28,"ny":28,"refTime":"2022-11-18T15:00:00:Z","depth":0,"parameterNumber":3,"parameterNumberName":"V-component_of_WINDS"},"data":[0,0,0,0,0,0,0,0,0,0,0,0,0,0,0,0,0,0,0,0,0,0,0,0,0,0,0,0,0,0,0,0,0,0,0,0,0,0,0,0,0,0,0,0,0,0,0,0,0,0,0,0,0,0,0,0,0,0,-2.9518,-2.9517,0,-2.9407,-2.9406,-2.9405,-2.9292,-2.9291,-2.9289,-2.9288,-2.9174,-2.9172,-2.9171,0,0,0,0,0,0,0,0,0,0,0,0,0,-2.9632,-2.9631,-2.9519,-2.9517,-2.9516,-2.9407,-2.9406,-2.9404,-2.9293,-2.9291,-2.9289,-2.9287,-2.9174,-2.9172,-2.917,0,0,0,0,0,0,0,0,0,0,0,0,0,-2.9558,-2.963,-2.9519,-2.9447,-2.9439,-2.9408,-2.9406,-2.9404,-2.9293,-2.9291,-2.9288,-2.9286,-2.9175,-2.9173,-2.917,-2.92,0,0,-2.9163,-2.9162,0,0,0,0,0,0,0,0,-2.9563,-2.9554,-2.9459,-2.9452,-2.9443,-2.9361,-2.9404,-2.9336,-2.9293,-2.9349,-2.9288,-2.9285,-2.9238,-2.923,-2.9214,-2.9195,-2.919,-2.9162,-2.9161,-2.916,-2.9159,0,0,0,0,0,0,0,-2.9568,-2.9558,-2.9474,-2.9458,-2.9448,-2.942,-2.9407,-2.9391,-2.9307,-2.9344,-2.9335,-2.9323,-2.9233,-2.9217,-2.9211,-2.9189,-2.9163,-2.916,-2.9159,-2.9158,-2.9186,-2.9188,0,0,0,0,0,0,-2.9584,-2.9563,-2.9478,-2.9471,-2.9499,-2.9419,-2.9405,-2.939,-2.9307,-2.9292,-2.9326,-2.9319,-2.9222,-2.9214,-2.9206,-2.9235,-2.916,-2.9158,-2.9156,-2.9184,-2.9187,-2.9189,0,0,0,0,0,0,-2.9587,-2.9578,-2.9482,-2.9515,-2.9501,-2.942,-2.9404,-2.9389,-2.9372,-2.9294,-2.9278,-2.9324,-2.922,-2.921,-2.9202,-2.923,-2.9157,-2.9154,-2.9181,-2.9185,-2.9188,-2.9295,0,0,0,0,0,0,-2.9591,-2.9579,-2.9591,-2.9516,-2.9499,-2.9481,-2.9406,-2.9388,-2.9369,-2.9359,-2.9288,-2.9275,-2.9218,-2.9207,-2.92,-2.9225,-2.9152,-2.9179,-2.9183,-2.9187,-2.9289,-2.9302,-2.9313,0,0,0,0,0,-2.9595,-2.9626,-2.9592,-2.9582,-2.9512,-2.9483,-2.9474,-2.9408,-2.9371,-2.9382,-2.933,-2.9277,-2.9228,-2.9207,-2.9198,-2.9223,-2.9177,-2.9182,-2.9187,-2.9283,-2.9299,-2.9312,0,0,0,0,0,0,-2.9706,-2.9615,-2.9576,-2.9583,-2.9542,-2.9464,-2.9476,-2.9427,-2.9395,-2.9387,-2.9305,-2.929,-2.9292,-2.9256,-2.9235,-2.9247,-2.9194,-2.9198,-2.9271,-2.9285,-2.9297,-2.9306,-2.915,0,0,0,0,0,-2.9732,-2.9716,-2.9637,-2.9651,-2.9632,-2.9558,-2.9543,-2.9495,-2.9449,-2.9431,-2.9379,-2.9336,-2.931,-2.9295,-2.9268,-2.9282,-2.9265,-2.9295,-2.9307,-2.9317,-2.9322,-2.9325,-2.9338,-2.9206,-2.9206,-2.9205,0,0,-2.9784,-2.9732,-2.9727,-2.9672,-2.9634,-2.9619,-2.9544,-2.9532,-2.952,-2.9429,-2.9418,-2.9379,-2.9325,-2.9329,-2.9327,-2.9299,-2.9354,-2.9324,-2.9332,-2.9331,-2.9332,-2.9344,-2.9356,-2.9209,-2.9208,-2.9208,0,0,-2.9872,-2.9831,-2.9838,-2.9801,-2.9744,-2.9694,-2.9696,-2.9625,-2.9595,-2.9583,-2.9514,-2.9498,-2.9457,-2.9421,-2.9397,-2.9469,-2.9418,-2.9462,-2.9525,-2.953,-2.954,-2.9549,-2.9574,-2.9584,-2.9466,-2.9467,-2.9467,0,-2.9944,-2.992,-2.9847,-2.9839,-2.9816,-2.9732,-2.9738,-2.9705,-2.9643,-2.9629,-2.9597,-2.9542,-2.95,-2.9493,-2.9511,-2.9494,-2.9493,-2.947,-2.9544,-2.9553,-2.956,-2.9583,-2.9593,-2.9472,-2.9472,-2.9471,-2.947,0,-3.0011,-2.9995,-3.0007,-2.9948,-2.9926,-2.9925,-2.9852,-2.9838,-2.9792,-2.9745,-2.9733,-2.9679,-2.9639,-2.9633,-2.9588,-2.9619,-2.9603,-2.956,-2.9505,-2.9579,-2.96,-2.9608,-2.9481,-2.9478,-2.9477,-2.9475,0,0,-3.0168,-3.0068,-3.0074,-3.0045,-2.9975,-2.9961,-2.9955,-2.9915,-2.9905,-2.9864,-2.9856,-2.9822,-2.978,-2.9753,-2.9703,-2.9707,-2.9766,-2.9662,-2.9659,-2.9683,-2.9797,-2.9831,-2.9843,-2.9731,-2.9733,-2.9734,-2.9801,0,-3.0245,-3.023,-3.0163,-3.0168,-3.0151,-3.007,-3.0064,-3.0021,-2.9976,-2.9955,-2.9905,-2.9882,-2.9828,-2.9811,-2.9811,-2.9759,-2.9788,-2.9753,-2.9724,-2.9724,-2.9741,-2.9853,-2.989,-2.9957,-2.9809,-2.981,-2.9811,0,-3.0332,-3.0296,-3.0299,-3.0228,-3.0218,-3.0215,-3.0172,-3.0153,-3.0101,-3.0068,-3.0037,-2.998,-2.9968,-2.9916,-2.9898,-2.9876,-2.986,-2.9832,-2.9833,-2.9829,-2.9773,-2.9853,-2.9976,-2.9987,-2.9823,-2.9822,-2.9821,0,-3.0447,-3.0399,-3.0394,-3.0372,-3.0289,-3.0288,-3.0253,-3.0199,-3.0178,-3.014,-3.0126,-3.0087,-3.0066,-3.0037,-2.9971,-2.9939,-2.996,-2.9903,-2.9932,-2.9934,-2.9942,-2.9943,-3.0066,-2.993,-2.993,-2.993,-2.993,0,-3.054,-3.0545,-3.0444,-3.0442,-3.0444,-3.0366,-3.0371,-3.0328,-3.028,-3.0267,-3.0193,-3.0182,-3.0095,-3.0074,-3.0021,-3.0014,-3.0005,-2.9978,-2.9964,-2.9985,-2.9989,-2.9975,-2.9969,-2.9932,-2.9932,-2.9931,-2.9931,0,-3.0669,-3.0602,-3.0591,-3.0513,-3.0493,-3.0498,-3.043,-3.0424,-3.0374,-3.0358,-3.035,-3.0271,-3.0242,-3.0172,-3.0125,-3.009,-3.0097,-3.0071,-3.0115,-3.0106,-3.014,-3.0138,-3.0259,-3.027,-3.0127,-3.0129,-3.013,0,-3.0734,-3.0735,-3.0656,-3.0642,-3.061,-3.0589,-3.0567,-3.049,-3.047,-3.041,-3.0411,-3.0375,-3.0344,-3.0301,-3.0239,-3.0202,-3.0175,-3.022,-3.0169,-3.019,-3.0176,-3.0178,-3.0177,-3.0232,-3.0234,-3.0235,-3.0237,0,-3.0855,-3.0821,-3.0793,-3.0753,-3.0729,-3.0693,-3.0654,-3.0646,-3.0559,-3.0541,-3.051,-3.0485,-3.0436,-3.0402,-3.0355,-3.0318,-3.0263,-3.0253,-3.0258,-3.028,-3.0306,-3.0293,-3.0146,-3.0251,-3.0249,-3.0248,-3.0248,-3.0247,-3.0954,-3.0951,-3.0895,-3.0866,-3.0827,-3.0792,-3.0782,-3.0729,-3.0703,-3.0657,-3.0612,-3.0586,-3.0531,-3.0462,-3.0429,-3.0407,-3.0379,-3.0386,-3.0388,-3.0391,-3.0401,-3.0308,-3.0398,-3.0397,-3.0397,-3.0396,-3.0396,0,-3.1072,-3.1031,-3.1005,-3.0951,-3.0928,-3.0877,-3.083,-3.0814,-3.0792,-3.0745,-3.0715,-3.0679,-3.0645,-3.058,-3.054,-3.0534,-3.0508,-3.0527,-3.0527,-3.0519,-3.0428,-3.0428,-3.0549,-3.0548,-3.0548,-3.0548,-3.0548,-3.0548,-3.1131,-3.1124,-3.1083,-3.1055,-3.1014,-3.0987,-3.0965,-3.0931,-3.0894,-3.0857,-3.0828,-3.0786,-3.0731,-3.0686,-3.0653,-3.0634,-3.0623,-3.065,-3.0624,-3.054,-3.0526,-3.0512,-3.0512,-3.0648,-3.0648,-3.0717,-3.0718,-3.0719]}]]